Back to catalog

FENGYUN 1C DEB

AliveSSO
NORAD 30823·DEBRIS·🇨🇳 China

Launched May 10, 1999 from Taiyuan Satellite Launch Center

Loading…

Next Passes (next 24 hours)

TLE

FreshSource: Space-Track

Epoch: Sep 14, 2026, 08:50 UTC

1 30823U 99025AVH 26257.36855981  .00000171  00000-0  12702-3 0  9992
2 30823  98.8022  33.6346 0133592  34.5901 352.0311 14.02846047998981

Track FENGYUN 1C DEB in real time with AllMySat

Download on the App Store